Tracking 31027 objects as of 19-Jul-2025
HD Live streaming from Space Station
objects crossing your sky now

CZ-2C R/B

Track CZ-2C R/B now!
10-day predictions


NORAD ID: 49030
Int'l Code: 2021-065E
Perigee: 376.6 km
Apogee: 428.3 km
Inclination: 35.1 °
Period: 92.5 minutes
Semi major axis: 6773 km
RCS: Unknown
Launch date: July 19, 2021
Source: People's Republic of China (PRC)
Launch site: Xichang Space Center, China (XSC)

Note: This is a ROCKET BODY
Your satellite tracking list
COSMOS 628
Track 1 satellite(s)




NASA's NSSDC Master Catalog

Two Line Element Set (TLE):
1 49030U 21065E   25199.90167596  .00033265  00000-0  42413-3 0  9995
2 49030  35.1272  76.2039 0038186 263.5743  96.0636 15.57359285223121
Source of the keplerian elements: AFSPC